Regional Weather Roundup
Issued by NWS

Home | Current Version | Previous Version | Graphics & Text | Print | Product List | Glossary On
Versions: 1 2 3 4 5 6 7 8 9 10 11 12 13 14 15 16 17 18 19 20 21 22 23 24 25 26 27 28 29 30 31 32 33 34 35 36 37 38 39 40 41 42 43 44 45 46 47 48 49 50
288
ASUS43 KFSD 281702
RWRSD

WEATHER ROUNDUP FOR SOUTH DAKOTA
NATIONAL WEATHER SERVICE SIOUX FALLS SD
1200 PM CDT WED JUN 28 2017

NOTE: "FAIR" INDICATES FEW OR NO CLOUDS BELOW 12,000 FEET WITH NO
SIGNIFICANT WEATHER AND/OR OBSTRUCTIONS TO VISIBILITY.


SDZ001>005-009-010-012>017-281800-
NORTHWEST AND NORTH CENTRAL SOUTH DAKOTA

CITY           SKY/WX    TMP DP  RH WIND       PRES   REMARKS
BUFFALO          N/A     77  34  21 NW12G20   29.71F
FAITH            N/A     77  41  27 N12G18    29.74R
MOBRIDGE       SUNNY     80  50  34 N18G25    29.64R
$$

SDZ012>016-024>037-041>051-057-063-072>074-281800-
SOUTHWEST AND SOUTH CENTRAL SOUTH DAKOTA

CITY           SKY/WX    TMP DP  RH WIND       PRES   REMARKS
RAPID CTY ARPT SUNNY     75  51  43 N10       29.80S
PIERRE         SUNNY     76  59  55 NW17      29.67R
CUSTER         SUNNY     71  38  29 NW6       29.90S
PHILIP         SUNNY     77  58  51 NW9       29.73S
PINE RIDGE     SUNNY     77  53  43 NW6       29.82F
SPEARFISH      FAIR      70  48  46 VRB7      29.84S
WINNER         FAIR      83  56  39 NW16G25   29.69S
$$

SDZ004>011-016>023-039-040-281800-
NORTHEAST SOUTH DAKOTA

CITY           SKY/WX    TMP DP  RH WIND       PRES   REMARKS
ABERDEEN       CLOUDY    74  63  68 W12       29.59R
WATERTOWN      CLOUDY    72  61  68 W15       29.58R
BROOKINGS      CLOUDY    72  62  71 W16       29.59R
SISSETON         N/A     71  63  75 NW20G25   29.50R
$$

SDZ017-020-022-023-036>040-048>070-281800-
SOUTHEAST SOUTH DAKOTA

CITY           SKY/WX    TMP DP  RH WIND       PRES   REMARKS
SIOUX FALLS    MOSUNNY   76  66  71 SW9       29.61S
HURON          MOSUNNY   79  63  57 W17G25    29.60R
CHAMBERLAIN    PTSUNNY   82  62  49 W18G25    29.66S
MITCHELL       MOSUNNY   81  61  50 W15G21    29.62R
YANKTON        SUNNY     79  62  56 W9        29.64S
$$

ABBREVIATIONS USED IN REMARKS
   TC - TEMPERATURE IN CELSIUS
  WCI - WIND CHILL INDEX
   HX - HEAT INDEX
  VSB - VISIBILITY





USA.gov is the U.S. government's official web portal to all federal, state and local government web resources and services.